Tracking 35331 objects as of 17-Sep-2026
HD Live streaming from Space Station
objects crossing your sky now

STARLINK-30412

Track STARLINK-30412 now!
10-day predictions
STARLINK-30412 is classified as:


NORAD ID: 57854
Int'l Code: 2023-141Q
Launch date: September 12, 2023
Source: United States (US)
Launch site: AIR FORCE WESTERN TEST RANGE (AFWTR)
Your satellite tracking list
Your tracking list is empty




NASA's NSSDC Master Catalog

Two Line Element Set (TLE):
1 57854U 23141Q   26257.92403192  .00000315  00000-0  20451-4 0  9997
2 57854  53.1611 123.5200 0001511 106.8032 253.3136 15.34395926169320
Source of the keplerian elements: AFSPC